Location: Unspecified
(52.1384°N, 8.6525°W)
Time: 18:50:37
(UTC+00:00)

N. Korean satellite - Pass Details

Date: 29 October 2020
Orbit: 453 x 503 km, 97.2° (Epoch: 04 December)

Event Time Altitude Azimuth Distance (km) Brightness Sun altitude
Rises 18:18:07 0° 209° (SSW) 2,536 10.8 -10.8°
Reaches altitude 10° 18:20:56 10° 234° (SW) 1,651 10.3 -11.2°
Maximum altitude 18:23:00 15° 270° (W) 1,379 10.2 -11.6°
Drops below altitude 10° 18:25:04 10° 306° (NW) 1,643 10.0 -11.9°
Sets 18:27:51 0° 331° (NNW) 2,515 10.5 -12.3°
